Shishmaref, AK

5:49 PM AKST on January 18, 2017 (GMT -0900)
New Shishmaref

Weather History for PASH - August, 2013

Change the Weather History Date:

Monday, August 5, 2013

  Actual Average Record
Temperature  
Mean Temperature 47 °F -  
Max Temperature 50 °F 51 °F 64 °F (2014)
Min Temperature 44 °F 44 °F 37 °F (2008)
Degree Days  
Heating Degree Days 18    
Moisture  
Dew Point 43 °F    
Average Humidity 85    
Maximum Humidity 93    
Minimum Humidity 81    
Precipitation  
Precipitation 0.02 in - - ()
Sea Level Pressure  
Sea Level Pressure 29.88 in    
Wind  
Wind Speed 9 mph (NNE)    
Max Wind Speed 20 mph    
Max Gust Speed -    
Visibility 10 miles    
Events      
Averages and records for this station are not official NWS values.
T = Trace of Precipitation, MM = Missing Value Source: NWS Daily Summary

Daily Weather History Graph

Daily Weather History Graph

Search for Another Location

Airport or City:

Trip Planner

Search our weather history database for the weather conditions in past years. The results will help you decide how hot, cold, wet, or windy it might be!

Date:

Astronomy

Aug. 05, 2013 Rise Set
Actual Time 6:04 AM AKDT 12:13 AM AKDT
Civil Twilight 4:16 AM AKDT 1:56 AM AKDT
Nautical Twilight Sun does not rise Sun does not rise
Astronomical Twilight Sun does not rise Sun does not rise
Moon 5:25 AM AKDT (8/5) 10:49 PM AKDT (8/5)
Length of Visible Light 21h 39m
Length of Day
18h 08m
Waning Crescent, 1% of the Moon is Illuminated
Aug 5
Waning Crescent
Aug 6
New
Aug 14
First Quarter
Aug 20
Full
Aug 28
Last Quarter

Hourly Weather History & Observations

Time (AKDT) Temp. Windchill Dew Point Humidity Pressure Visibility Wind Dir Wind Speed Gust Speed Precip Events Conditions
12:16 AM 44.6 °F 40.2 °F 39.2 °F 81% 29.84 in 10.0 mi North 8.1 mph - N/A   Overcast
12:36 AM 44.6 °F 40.2 °F 41.0 °F 87% 29.84 in 7.0 mi North 8.1 mph - N/A   Overcast
12:56 AM 44.6 °F 40.7 °F 41.0 °F 87% 29.84 in 10.0 mi North 6.9 mph - N/A   Overcast
1:16 AM 44.6 °F 40.2 °F 41.0 °F 87% 29.85 in 9.0 mi North 8.1 mph - N/A   Overcast
1:36 AM 44.6 °F 40.2 °F 39.2 °F 81% 29.85 in 10.0 mi North 8.1 mph - N/A   Overcast
1:56 AM 44.6 °F 40.2 °F 39.2 °F 81% 29.85 in 10.0 mi North 8.1 mph - N/A   Overcast
2:16 AM 44.6 °F 40.2 °F 41.0 °F 87% 29.85 in 10.0 mi North 8.1 mph - N/A   Overcast
2:36 AM 44.6 °F 40.2 °F 41.0 °F 87% 29.86 in 10.0 mi North 8.1 mph - N/A   Overcast
2:56 AM 44.6 °F 40.2 °F 41.0 °F 87% 29.86 in 10.0 mi North 8.1 mph - N/A   Overcast
3:16 AM 44.6 °F 40.7 °F 41.0 °F 87% 29.86 in 10.0 mi North 6.9 mph - N/A   Overcast
3:36 AM 44.6 °F 40.2 °F 41.0 °F 87% 29.86 in 10.0 mi North 8.1 mph - N/A   Overcast
3:56 AM 44.6 °F 40.2 °F 41.0 °F 87% 29.86 in 10.0 mi North 8.1 mph - N/A   Overcast
4:16 AM 44.6 °F 40.2 °F 41.0 °F 87% 29.87 in 10.0 mi NNE 8.1 mph - N/A   Overcast
4:36 AM 44.6 °F 40.2 °F 41.0 °F 87% 29.87 in 10.0 mi North 8.1 mph - N/A   Overcast
4:56 AM 44.6 °F 40.7 °F 41.0 °F 87% 29.86 in 10.0 mi North 6.9 mph - N/A   Overcast
5:16 AM 44.6 °F 40.2 °F 41.0 °F 87% 29.87 in 10.0 mi North 8.1 mph - N/A   Overcast
5:36 AM 44.6 °F 40.2 °F 41.0 °F 87% 29.87 in 10.0 mi North 8.1 mph - N/A   Overcast
5:56 AM 44.6 °F 39.7 °F 41.0 °F 87% 29.87 in 10.0 mi North 9.2 mph - N/A   Overcast
6:16 AM 44.6 °F 40.2 °F 42.8 °F 93% 29.87 in 10.0 mi North 8.1 mph - N/A   Overcast
6:36 AM 44.6 °F 40.2 °F 41.0 °F 87% 29.87 in 10.0 mi North 8.1 mph - N/A   Overcast
6:56 AM 44.6 °F 40.7 °F 41.0 °F 87% 29.87 in 10.0 mi North 6.9 mph - N/A   Overcast
7:16 AM 46.4 °F 42.4 °F 41.0 °F 81% 29.87 in 10.0 mi North 8.1 mph - N/A   Overcast
7:36 AM 44.6 °F 40.7 °F 41.0 °F 87% 29.87 in 10.0 mi North 6.9 mph - N/A   Overcast
7:56 AM 46.4 °F 42.9 °F 41.0 °F 81% 29.88 in - NNE 6.9 mph - N/A   Overcast
8:16 AM 46.4 °F 43.5 °F 41.0 °F 81% 29.88 in - NNE 5.8 mph - N/A   Overcast
8:36 AM 46.4 °F 44.3 °F 41.0 °F 81% 29.88 in 10.0 mi North 4.6 mph - N/A   Overcast
8:56 AM 46.4 °F 42.9 °F 42.8 °F 87% 29.89 in 10.0 mi NNE 6.9 mph - N/A   Overcast
9:16 AM 46.4 °F 42.9 °F 42.8 °F 87% 29.88 in 10.0 mi NNE 6.9 mph - N/A   Overcast
9:36 AM 46.4 °F 41.5 °F 42.8 °F 87% 29.88 in 10.0 mi North 10.4 mph - N/A   Mostly Cloudy
9:56 AM 46.4 °F 43.5 °F 42.8 °F 87% 29.89 in 10.0 mi NE 5.8 mph - N/A   Mostly Cloudy
10:16 AM 46.4 °F 43.5 °F 42.8 °F 87% 29.90 in 10.0 mi NNE 5.8 mph - N/A   Overcast
10:36 AM 46.4 °F 43.5 °F 42.8 °F 87% 29.89 in 10.0 mi NNE 5.8 mph - N/A   Overcast
10:56 AM 46.4 °F 43.5 °F 42.8 °F 87% 29.90 in 10.0 mi NNE 5.8 mph - N/A   Overcast
11:16 AM 48.2 °F - 42.8 °F 82% 29.90 in 10.0 mi NNE 5.8 mph - N/A   Overcast
11:36 AM 48.2 °F - 42.8 °F 82% 29.90 in 10.0 mi NNE 6.9 mph - N/A   Overcast
11:56 AM 48.2 °F - 42.8 °F 82% 29.90 in 10.0 mi NE 4.6 mph - N/A   Overcast
12:16 PM 48.2 °F - 42.8 °F 82% 29.90 in 10.0 mi NE 6.9 mph - N/A   Overcast
12:36 PM 48.2 °F - 42.8 °F 82% 29.90 in 10.0 mi NNE 6.9 mph - N/A   Overcast
12:56 PM 48.2 °F - 44.6 °F 87% 29.90 in 10.0 mi NNE 6.9 mph - N/A   Overcast
1:16 PM 48.2 °F - 44.6 °F 87% 29.90 in 10.0 mi NNE 6.9 mph - N/A   Overcast
1:36 PM 48.2 °F - 44.6 °F 87% 29.90 in 10.0 mi NE 9.2 mph - N/A   Overcast
1:56 PM 48.2 °F - 44.6 °F 87% 29.90 in 10.0 mi NE 9.2 mph - N/A   Overcast
2:16 PM 48.2 °F - 44.6 °F 87% 29.90 in 10.0 mi NNE 10.4 mph - N/A   Overcast
2:36 PM 48.2 °F - 44.6 °F 87% 29.90 in 10.0 mi NNE 11.5 mph - N/A   Overcast
2:56 PM 48.2 °F - 44.6 °F 87% 29.89 in 10.0 mi NNE 11.5 mph - N/A   Overcast
3:16 PM 50.0 °F - 44.6 °F 82% 29.89 in 10.0 mi NNE 13.8 mph - N/A   Overcast
3:36 PM 50.0 °F - 44.6 °F 82% 29.90 in 10.0 mi NNE 12.7 mph - N/A   Overcast
3:56 PM 50.0 °F - 44.6 °F 82% 29.89 in 10.0 mi NNE 15.0 mph - N/A   Overcast
4:16 PM 50.0 °F - 44.6 °F 82% 29.89 in 10.0 mi NNE 15.0 mph - N/A   Overcast
4:36 PM 50.0 °F - 44.6 °F 82% 29.89 in 10.0 mi NNE 15.0 mph - N/A   Overcast
4:56 PM 50.0 °F - 44.6 °F 82% 29.89 in 10.0 mi NNE 16.1 mph - N/A   Overcast
5:16 PM 48.2 °F - 42.8 °F 82% 29.89 in 10.0 mi NNE 17.3 mph - N/A   Overcast
5:36 PM 50.0 °F - 44.6 °F 82% 29.89 in 10.0 mi NNE 15.0 mph - N/A   Overcast
5:56 PM 50.0 °F - 44.6 °F 82% 29.89 in 10.0 mi NNE 17.3 mph - N/A   Overcast
6:16 PM 48.2 °F - 44.6 °F 87% 29.88 in 10.0 mi NNE 17.3 mph - N/A   Overcast
6:36 PM 48.2 °F - 44.6 °F 87% 29.88 in 10.0 mi NNE 16.1 mph - N/A   Overcast
6:56 PM 48.2 °F - 44.6 °F 87% 29.88 in 10.0 mi NNE 16.1 mph - N/A   Overcast
7:16 PM 50.0 °F - 44.6 °F 82% 29.88 in 10.0 mi NNE 16.1 mph - N/A   Overcast
7:36 PM 48.2 °F - 44.6 °F 87% 29.88 in 10.0 mi NNE 17.3 mph - N/A   Overcast
7:56 PM 48.2 °F - 44.6 °F 87% 29.88 in 10.0 mi NNE 17.3 mph - N/A   Overcast
8:16 PM 48.2 °F - 44.6 °F 87% 29.88 in 10.0 mi North 17.3 mph - N/A   Mostly Cloudy
8:36 PM 48.2 °F - 44.6 °F 87% 29.88 in 10.0 mi NNE 17.3 mph - N/A   Overcast
8:56 PM 48.2 °F - 44.6 °F 87% 29.87 in 10.0 mi NNE 19.6 mph - N/A   Overcast
9:16 PM 48.2 °F - 44.6 °F 87% 29.87 in 10.0 mi North 18.4 mph - N/A   Overcast
9:36 PM 50.0 °F - 44.6 °F 82% 29.86 in 10.0 mi North 18.4 mph - N/A   Overcast
9:56 PM 50.0 °F - 44.6 °F 82% 29.86 in 10.0 mi North 17.3 mph - N/A   Overcast
10:16 PM 50.0 °F - 44.6 °F 82% 29.87 in 10.0 mi NNE 16.1 mph - N/A   Overcast
10:36 PM 50.0 °F - 44.6 °F 82% 29.87 in 10.0 mi NNE 15.0 mph - N/A   Overcast
10:56 PM 50.0 °F - 44.6 °F 82% 29.87 in 10.0 mi NNE 13.8 mph - N/A   Overcast
11:16 PM 50.0 °F - 44.6 °F 82% 29.87 in 10.0 mi NNE 15.0 mph - N/A   Overcast
11:36 PM 50.0 °F - 46.4 °F 87% 29.87 in 9.0 mi NNE 12.7 mph - 0.01 in   Overcast
11:56 PM 50.0 °F - 44.6 °F 82% 29.87 in 8.0 mi NNE 13.8 mph - 0.02 in   Overcast